Terminal Aerodrome Forecast
Issued by NWS South Bend, IN

Home | Current Version | Previous Version | Text Only | Print | Product List | Glossary On
Versions: 1 2 3 4 5 6 7 8 9 10 11 12 13 14 15 16 17 18 19 20
000
FTUS43 KIWX 060000 AAA
TAFSBN
TAF AMD
KSBN 060052Z 0601/0624 07006KT 6SM BR SCT006 BKN150
     FM060200 09007KT 5SM BR BKN006
     FM060800 VRB03KT 1SM BR SCT010 BKN070
     FM061500 24005KT P6SM BKN050=

USA.gov is the U.S. government's official web portal to all federal, state and local government web resources and services.